Estación meteorológica de Els Cortals - St. Hilari Sacalm (La Selva, Guilleries)

Consulta los datos en tiempo real de la estación meteorológica de Els Cortals - St. Hilari Sacalm





Hora UTC 21:00
Temperatura 9.7 ºC
Humedad 70.0 %
Presión 1005.8 hPa
Pluja 2.8 mm
Velocidad viento 11.3 km/h
Dirección viento WSW

Datos diarios 2026-05-04



Hora UTC (invierno +1h; verano +2h)
Temperatura (ºC) Humedad (%) Presión (hPa) Velocidad viento (km/h) Precipitación (mm)
Hora UTC Aire Humedad Presión Vel. Dir. Vel. Max Dir. Intent. máx 5 min.
00:05 9.8 67.0 1008.5 0.0 E 0.0 0.0
00:10 9.8 67.0 1008.3 0.0 E 0.0 0.0
00:15 9.9 67.0 1008.2 0.0 E 0.0 0.0
00:20 9.9 67.0 1008.3 0.0 E 0.0 0.0
00:25 9.8 67.0 1008.2 0.0 E 0.0 0.0
00:30 9.8 67.0 1008.1 0.0 E 0.0 0.0
00:35 9.8 67.0 1008.3 0.0 E 0.0 0.0
00:40 9.7 67.0 1008.3 0.0 E 0.0 0.0
00:45 9.6 67.0 1008.3 0.0 E 0.0 0.0
00:50 9.6 67.0 1008.3 0.0 WNW 0.0 0.0
00:55 9.5 67.0 1008.2 0.0 WNW 0.0 0.0
01:00 9.4 67.0 1008.2 0.0 WNW 0.0 0.3
01:05 9.4 67.0 1008.2 8.0 W 11.3 0.0
01:10 9.4 67.0 1008.0 8.0 WNW 12.9 0.0
01:15 9.3 67.0 1008.0 8.0 W 14.5 0.0
01:20 9.3 67.0 1008.0 11.3 NW 14.5 0.0
01:25 9.3 67.0 1007.8 0.0 WNW 11.3 0.0
01:30 9.2 67.0 1007.8 0.0 WNW 3.2 0.0
01:35 9.1 67.0 1008.0 0.0 WNW 0.0 0.0
01:40 9.1 67.0 1008.1 8.0 WSW 9.7 0.0
01:45 9.2 67.0 1008.0 3.2 W 9.7 0.0
01:50 9.2 67.0 1007.9 0.0 W 6.4 0.0
01:55 9.2 67.0 1007.8 0.0 W 6.4 0.0
02:00 9.2 67.0 1007.9 0.0 W 1.6 0.0
02:05 9.2 67.0 1007.9 0.0 W 1.6 0.0
02:10 9.3 67.0 1007.7 1.6 W 8.0 0.0
02:15 9.3 67.0 1007.8 3.2 W 9.7 0.0
02:20 9.4 67.0 1007.9 3.2 W 9.7 0.0
02:25 9.6 67.0 1007.8 8.0 W 9.7 0.0
02:30 9.6 67.0 1007.8 0.0 W 8.0 0.0
02:35 9.6 67.0 1007.7 0.0 W 6.4 0.0
02:40 9.6 67.0 1007.7 1.6 W 3.2 0.0
02:45 9.6 67.0 1007.8 0.0 W 3.2 0.0
02:50 9.6 67.0 1007.7 0.0 W 3.2 0.0
02:55 9.7 67.0 1007.7 1.6 W 6.4 0.0
03:00 9.7 67.0 1007.8 0.0 W 3.2 0.0
03:05 9.7 67.0 1007.8 6.4 WSW 8.0 0.0
03:10 9.8 67.0 1007.8 6.4 W 9.7 0.0
03:15 9.8 67.0 1007.8 1.6 W 9.7 0.0
03:20 9.8 67.0 1007.8 4.8 W 8.0 0.0
03:25 9.8 67.0 1007.6 1.6 W 4.8 0.0
03:30 9.8 67.0 1007.7 3.2 W 6.4 0.0
03:35 9.8 67.0 1007.7 0.0 W 6.4 0.0
03:40 9.8 67.0 1007.6 0.0 W 3.2 0.0
03:45 9.9 67.0 1007.6 0.0 W 3.2 0.0
03:50 9.9 67.0 1007.6 1.6 W 1.6 0.0
03:55 9.9 67.0 1007.5 0.0 W 6.4 0.0
04:00 9.9 67.0 1007.4 1.6 W 1.6 0.0
04:05 10.1 67.0 1007.3 8.0 SSW 9.7 0.0
04:10 10.2 67.0 1007.3 0.0 SSW 9.7 0.0
04:15 10.3 67.0 1007.3 0.0 SSW 3.2 0.0
04:20 10.3 67.0 1007.3 0.0 SSW 3.2 0.0
04:25 10.3 67.0 1007.3 0.0 NW 3.2 0.0
04:30 10.3 67.0 1007.3 1.6 NW 6.4 0.0
04:35 10.2 67.0 1007.2 0.0 NW 6.4 0.0
04:40 9.9 67.0 1007.3 0.0 NW 6.4 0.0
04:45 9.8 67.0 1007.2 1.6 WSW 8.0 0.0
04:50 9.7 67.0 1007.1 3.2 W 8.0 0.0
04:55 9.7 67.0 1007.1 1.6 W 8.0 0.0
05:00 9.7 67.0 1007.2 0.0 WNW 9.7 0.0
05:05 9.7 67.0 1007.2 1.6 WNW 9.7 0.0
05:10 9.7 67.0 1007.2 0.0 WNW 6.4 0.0
05:15 9.7 67.0 1007.1 1.6 WNW 3.2 0.0
05:20 9.7 67.0 1007.2 6.4 W 11.3 0.0
05:25 9.7 67.0 1007.2 3.2 W 12.9 0.0
05:30 9.7 67.0 1007.1 9.7 W 12.9 0.0
05:35 9.8 67.0 1007.1 9.7 WNW 12.9 0.0
05:40 10.0 67.0 1007.1 11.3 W 16.1 0.0
05:45 10.2 67.0 1007.2 11.3 W 16.1 0.0
05:50 10.3 67.0 1007.3 12.9 W 14.5 0.0
05:55 10.4 67.0 1007.2 11.3 WSW 14.5 0.0
06:00 10.5 67.0 1007.2 11.3 W 19.3 0.0
06:05 10.6 67.0 1007.2 12.9 WNW 19.3 0.0
06:10 10.6 67.0 1007.2 9.7 W 14.5 0.0
06:15 10.7 67.0 1007.3 8.0 NW 19.3 0.0
06:20 10.7 67.0 1007.3 9.7 WSW 19.3 0.0
06:25 10.9 68.0 1007.4 9.7 WSW 16.1 0.0
06:30 11.1 68.0 1007.3 3.2 WSW 14.5 0.0
06:35 11.3 68.0 1007.3 12.9 WSW 14.5 0.0
06:40 11.3 68.0 1007.1 6.4 WSW 14.5 0.0
06:45 11.5 68.0 1007.0 8.0 WSW 16.1 0.0
06:50 11.7 69.0 1007.2 14.5 WSW 16.1 0.0
06:55 11.7 69.0 1006.8 4.8 WSW 14.5 0.0
07:00 11.8 70.0 1007.2 16.1 W 20.9 0.0
07:05 11.6 71.0 1007.3 11.3 SW 20.9 0.0
07:10 11.4 71.0 1007.3 8.0 WNW 20.9 0.0
07:15 11.4 72.0 1007.3 11.3 WSW 19.3 0.0
07:20 11.4 72.0 1007.3 14.5 W 20.9 0.0
07:25 11.2 73.0 1007.2 11.3 WNW 24.1 0.0
07:30 11.2 73.0 1007.0 9.7 WSW 24.1 0.0
07:35 11.4 72.0 1007.3 9.7 WSW 16.1 0.0
07:40 11.8 73.0 1007.1 16.1 WNW 20.9 0.0
07:45 12.3 74.0 1007.1 14.5 W 17.7 0.0
07:50 12.5 77.0 1007.2 6.4 WSW 17.7 0.0
07:55 12.9 80.0 1007.0 9.7 W 17.7 0.0
08:00 13.3 81.0 1006.9 9.7 SW 17.7 0.0
08:05 13.7 82.0 1006.9 8.0 WSW 20.9 0.0
08:10 14.0 82.0 1007.1 8.0 WNW 17.7 0.0
08:15 14.3 82.0 1006.9 12.9 WSW 19.3 0.0
08:20 14.4 82.0 1007.0 6.4 W 19.3 0.0
08:25 14.7 82.0 1007.0 9.7 WSW 17.7 0.0
08:30 15.0 82.0 1006.8 6.4 WSW 16.1 0.0
08:35 15.2 82.0 1006.7 6.4 WSW 19.3 0.0
08:40 15.5 81.0 1006.9 12.9 W 19.3 0.0
08:45 15.5 80.0 1006.7 1.6 SSW 19.3 0.0
08:50 15.6 80.0 1007.0 6.4 WSW 19.3 0.0
08:55 15.4 79.0 1006.8 9.7 W 17.7 0.0
09:00 15.3 80.0 1006.8 11.3 W 19.3 0.0
09:05 15.3 80.0 1006.6 1.6 SW 20.9 0.0
09:10 15.5 80.0 1006.7 14.5 WNW 20.9 0.0
09:15 15.4 80.0 1006.7 1.6 WSW 19.3 0.0
09:20 15.7 81.0 1006.9 0.0 WSW 19.3 0.0
09:25 15.9 80.0 1007.0 8.0 SSW 14.5 0.0
09:30 15.9 79.0 1006.9 1.6 W 14.5 0.0
09:35 15.9 79.0 1007.0 8.0 W 14.5 0.0
09:40 15.8 78.0 1006.9 3.2 WSW 16.1 0.0
09:45 15.8 80.0 1006.9 8.0 W 16.1 0.0
09:50 15.9 79.0 1006.9 9.7 W 12.9 0.0
09:55 16.1 79.0 1006.9 8.0 WSW 14.5 0.0
10:00 16.3 78.0 1006.7 6.4 WSW 14.5 0.0
10:05 16.9 77.0 1006.9 0.0 SSW 12.9 0.0
10:10 17.7 75.0 1006.8 0.0 SW 12.9 0.0
10:15 17.8 72.0 1006.8 0.0 WSW 8.0 0.0
10:20 17.8 71.0 1006.8 0.0 WNW 8.0 0.0
10:25 17.9 71.0 1006.5 0.0 WSW 0.0 0.0
10:30 18.1 70.0 1006.7 0.0 WSW 0.0 0.0
10:35 18.1 76.0 1006.7 0.0 E 0.0 0.0
10:40 17.6 76.0 1006.7 0.0 E 0.0 0.0
10:45 17.2 78.0 1006.8 0.0 E 0.0 0.0
10:50 16.9 79.0 1006.7 0.0 ESE 0.0 0.0
10:55 16.7 80.0 1006.7 0.0 E 0.0 0.0
11:00 16.5 81.0 1006.7 0.0 SW 0.0 0.0
11:05 16.4 81.0 1006.4 0.0 E 0.0 0.0
11:10 16.3 80.0 1006.5 0.0 ESE 0.0 0.0
11:15 16.3 82.0 1006.3 0.0 SE 0.0 0.0
11:20 16.2 82.0 1006.4 0.0 WSW 0.0 0.0
11:25 16.1 82.0 1006.3 0.0 SE 0.0 0.0
11:30 16.0 82.0 1006.3 0.0 E 0.0 0.0
11:35 15.9 82.0 1006.4 0.0 ENE 0.0 0.0
11:40 15.9 82.0 1006.4 0.0 NNW 0.0 0.0
11:45 15.9 82.0 1006.4 0.0 E 0.0 0.0
11:50 15.9 82.0 1006.4 0.0 ENE 0.0 0.0
11:55 15.8 82.0 1006.4 0.0 E 0.0 0.0
12:00 15.7 82.0 1006.3 0.0 E 0.0 0.0
12:05 15.3 82.0 1006.2 0.0 E 0.0 0.0
12:10 15.1 82.0 1006.1 0.0 ENE 0.0 0.0
12:15 15.0 81.0 1006.1 0.0 E 0.0 0.0
12:20 15.0 81.0 1005.9 0.0 E 0.0 0.0
12:25 15.0 81.0 1005.9 0.0 E 0.0 0.0
12:30 15.0 81.0 1005.9 0.0 E 0.0 0.0
12:35 15.0 81.0 1006.0 0.0 E 0.0 0.0
12:40 15.0 80.0 1005.7 0.0 ESE 0.0 0.0
12:45 15.0 80.0 1005.7 0.0 E 0.0 0.0
12:50 15.0 79.0 1005.7 0.0 ESE 0.0 0.0
12:55 14.9 77.0 1005.6 0.0 E 0.0 0.0
13:00 14.8 75.0 1005.4 0.0 E 0.0 0.0
13:05 14.6 75.0 1005.7 0.0 E 0.0 0.0
13:10 14.3 74.0 1005.9 0.0 SSE 0.0 0.0
13:15 13.9 73.0 1005.9 0.0 E 0.0 0.0
13:20 13.8 73.0 1005.9 0.0 E 0.0 0.0
13:25 13.8 72.0 1005.8 0.0 E 0.0 0.0
13:30 13.8 71.0 1005.7 0.0 E 0.0 0.0
13:35 13.6 71.0 1005.7 6.4 E 8.0 0.0
13:40 13.3 71.0 1005.8 4.8 E 11.3 0.0
13:45 13.3 70.0 1005.6 4.8 ENE 11.3 0.0
13:50 13.1 69.0 1005.7 6.4 ENE 9.7 0.0
13:55 13.1 69.0 1005.7 3.2 ENE 9.7 0.0
14:00 12.9 69.0 1005.5 0.0 E 9.7 0.0
14:05 13.0 68.0 1005.7 0.0 E 6.4 0.0
14:10 12.9 68.0 1005.5 0.0 E 8.0 0.0
14:15 12.9 68.0 1005.5 0.0 E 8.0 0.0
14:20 12.8 68.0 1005.5 8.0 E 12.9 0.0
14:25 12.8 68.0 1005.4 3.2 SSE 12.9 0.0
14:30 12.7 68.0 1005.5 1.6 S 9.7 0.0
14:35 12.7 68.0 1005.6 0.0 SW 9.7 0.0
14:40 12.7 68.0 1005.7 3.2 SW 4.8 0.0
14:45 12.5 68.0 1005.8 6.4 SSW 11.3 0.3
14:50 12.3 68.0 1005.7 4.8 WSW 16.1 0.3
14:55 12.2 68.0 1005.5 6.4 SW 12.9 0.0
15:00 12.1 68.0 1005.8 0.0 SW 12.9 0.0
15:05 12.1 68.0 1005.7 1.6 SW 8.0 0.3
15:10 12.1 68.0 1005.6 9.7 W 12.9 0.3
15:15 11.8 68.0 1005.6 9.7 W 16.1 0.3
15:20 11.4 69.0 1005.8 1.6 WSW 16.1 0.0
15:25 11.3 69.0 1005.8 1.6 WSW 14.5 0.3
15:30 11.3 69.0 1005.7 6.4 WNW 11.3 0.0
15:35 11.2 69.0 1005.5 6.4 W 11.3 0.3
15:40 11.1 69.0 1005.4 3.2 W 9.7 0.0
15:45 11.1 70.0 1005.5 3.2 W 8.0 0.0
15:50 11.1 70.0 1005.5 6.4 W 9.7 0.0
15:55 11.1 70.0 1005.3 3.2 W 9.7 0.3
16:00 11.1 70.0 1005.3 1.6 W 9.7 0.0
16:05 11.3 70.0 1005.4 6.4 W 9.7 0.0
16:10 11.3 70.0 1005.4 1.6 W 9.7 0.0
16:15 11.2 71.0 1005.2 0.0 W 8.0 0.0
16:20 11.3 71.0 1005.3 1.6 W 6.4 0.0
16:25 11.6 71.0 1005.4 0.0 W 6.4 0.0
16:30 11.7 72.0 1005.5 0.0 W 1.6 0.0
16:35 11.9 73.0 1005.3 3.2 SSW 6.4 0.0
16:40 11.9 74.0 1005.5 1.6 SSW 8.0 0.0
16:45 12.0 76.0 1005.1 3.2 SSW 8.0 0.0
16:50 12.1 77.0 1005.2 0.0 SSW 3.2 0.0
16:55 12.2 77.0 1005.2 6.4 SSW 6.4 0.0
17:00 12.1 78.0 1005.2 0.0 SW 6.4 0.0
17:05 12.1 78.0 1005.2 0.0 SW 6.4 0.0
17:10 12.1 80.0 1005.1 0.0 SW 0.0 0.0
17:15 12.2 81.0 1005.0 0.0 SW 0.0 0.0
17:20 12.3 80.0 1004.8 0.0 SW 0.0 0.0
17:25 12.4 77.0 1004.9 0.0 SW 0.0 0.0
17:30 12.4 76.0 1005.0 0.0 S 6.4 0.0
17:35 12.2 75.0 1004.9 0.0 S 6.4 0.0
17:40 12.1 74.0 1004.9 0.0 S 0.0 0.0
17:45 12.1 73.0 1004.7 0.0 SW 8.0 0.0
17:50 12.2 72.0 1004.6 0.0 SW 8.0 0.0
17:55 12.2 72.0 1004.7 0.0 SW 6.4 0.0
18:00 12.3 72.0 1004.7 3.2 SW 6.4 0.0
18:05 12.2 72.0 1004.6 0.0 SW 8.0 0.0
18:10 12.2 72.0 1004.6 0.0 SW 8.0 0.0
18:15 12.2 72.0 1004.5 0.0 SW 1.6 0.0
18:20 12.2 72.0 1004.7 0.0 SW 0.0 0.0
18:25 12.2 72.0 1004.7 0.0 SW 0.0 0.0
18:30 12.2 72.0 1004.5 0.0 SW 0.0 0.0
18:35 12.1 71.0 1004.4 0.0 SW 0.0 0.0
18:40 12.1 71.0 1004.8 0.0 SW 1.6 0.0
18:45 11.9 71.0 1004.8 0.0 SW 1.6 0.0
18:50 11.8 71.0 1005.0 0.0 SW 0.0 0.0
18:55 11.7 71.0 1005.0 0.0 SW 0.0 0.0
19:00 11.7 70.0 1005.1 3.2 SW 3.2 0.0
19:05 11.6 71.0 1005.2 0.0 W 3.2 0.0
19:10 11.5 71.0 1005.1 3.2 W 8.0 0.0
19:15 11.4 71.0 1005.1 3.2 W 8.0 0.0
19:20 11.4 71.0 1005.1 6.4 W 8.0 0.0
19:25 11.4 71.0 1005.0 3.2 W 8.0 0.0
19:30 11.5 70.0 1005.2 6.4 W 8.0 0.0
19:35 11.4 70.0 1005.3 1.6 W 8.0 0.0
19:40 11.4 70.0 1005.4 3.2 W 9.7 0.0
19:45 11.3 70.0 1005.5 1.6 W 9.7 0.0
19:50 11.3 70.0 1005.5 1.6 W 6.4 0.0
19:55 11.2 70.0 1005.4 1.6 W 9.7 0.0
20:00 11.2 70.0 1005.5 0.0 WSW 9.7 0.0
20:05 11.1 70.0 1005.5 0.0 WSW 8.0 0.0
20:10 11.1 69.0 1005.7 0.0 WSW 3.2 0.0
20:15 11.1 69.0 1005.8 3.2 WSW 8.0 0.0
20:20 11.1 69.0 1005.8 1.6 WSW 8.0 0.0
20:25 11.1 69.0 1006.1 9.7 WSW 9.7 0.0
20:30 11.2 69.0 1006.3 3.2 WSW 14.5 0.0
20:35 11.2 69.0 1006.4 6.4 SW 12.9 0.0
20:40 10.6 70.0 1006.5 11.3 WSW 25.7 0.5
20:45 10.2 70.0 1006.2 14.5 W 25.7 0.0
20:50 10.1 70.0 1006.1 14.5 SW 19.3 0.0
20:55 9.8 70.0 1005.9 11.3 W 20.9 0.0
21:00 9.7 70.0 1005.8 11.3 WSW 20.9 0.0
Máxima 18.1 82.0 1008.5 16.1 WNW 25.7 0.5
Mínima 9.1 67.0 1004.4
Total 3.2